Time,TemperatureF,DewpointF,PressureIn,WindDirection,WindDirectionDegrees,WindSpeedMPH,WindSpeedGustMPH,Humidity,HourlyPrecipIn,Conditions,Clouds,dailyrainin,SolarRadiationWatts/m^2,SoftwareType,DateUTC
2013-07-08 00:02:00,73.0,67.0,-100.00,West,260,1.0,6.0,82,0.00,,,0.01,217.000000,,2013-07-08 00:02:00,
2013-07-08 00:11:00,69.0,63.0,-100.00,East,97,0.0,4.0,82,0.00,,,-99.99,97.000000,,2013-07-08 00:11:00,
2013-07-08 00:43:00,69.0,63.0,-100.00,East,97,0.0,4.0,82,0.00,,,-99.99,97.000000,,2013-07-08 00:43:00,
2013-07-08 00:53:00,69.0,63.0,-100.00,East,97,0.0,4.0,82,0.00,,,-99.99,97.000000,,2013-07-08 00:53:00,
2013-07-08 01:01:00,69.0,63.0,-100.00,East,97,0.0,4.0,82,0.00,,,-99.99,97.000000,,2013-07-08 01:01:00,
2013-07-08 01:11:00,67.0,65.0,-100.00,North,6,1.0,3.0,92,0.01,,,0.02,16.000000,,2013-07-08 01:11:00,
2013-07-08 01:32:00,67.0,65.0,-100.00,North,6,1.0,3.0,92,0.01,,,0.02,16.000000,,2013-07-08 01:32:00,
2013-07-08 01:43:00,67.0,65.0,-100.00,North,6,1.0,3.0,92,0.01,,,0.02,16.000000,,2013-07-08 01:43:00,
2013-07-08 01:53:00,67.0,65.0,-100.00,North,6,1.0,3.0,92,0.01,,,0.02,16.000000,,2013-07-08 01:53:00,
2013-07-08 02:02:00,67.0,65.0,-100.00,North,6,1.0,3.0,92,0.01,,,0.02,16.000000,,2013-07-08 02:02:00,
2013-07-08 02:11:00,65.0,64.0,-100.00,ESE,112,0.0,1.0,96,0.00,,,0.02,0.000000,,2013-07-08 02:11:00,
2013-07-08 02:43:00,65.0,64.0,-100.00,ESE,112,0.0,1.0,96,0.00,,,0.02,0.000000,,2013-07-08 02:43:00,
2013-07-08 02:52:00,65.0,64.0,-100.00,ESE,112,0.0,1.0,96,0.00,,,0.02,0.000000,,2013-07-08 02:52:00,
2013-07-08 03:02:00,65.0,64.0,-100.00,ESE,112,0.0,1.0,96,0.00,,,0.02,0.000000,,2013-07-08 03:02:00,
2013-07-08 03:11:00,64.0,63.0,-100.00,NE,49,0.0,2.0,98,0.00,,,0.02,0.000000,,2013-07-08 03:11:00,
2013-07-08 03:43:00,64.0,63.0,-100.00,NE,49,0.0,2.0,98,0.00,,,0.02,0.000000,,2013-07-08 03:43:00,
2013-07-08 03:52:00,64.0,63.0,-100.00,NE,49,0.0,2.0,98,0.00,,,0.02,0.000000,,2013-07-08 03:52:00,
2013-07-08 04:02:00,64.0,63.0,-100.00,NE,49,0.0,2.0,98,0.00,,,0.02,0.000000,,2013-07-08 04:02:00,
2013-07-08 04:11:00,63.0,62.0,-100.00,NNW,332,1.0,2.0,98,0.00,,,0.02,0.000000,,2013-07-08 04:11:00,
2013-07-08 04:42:00,63.0,62.0,-100.00,NNW,332,1.0,2.0,98,0.00,,,0.02,0.000000,,2013-07-08 04:42:00,
2013-07-08 04:53:00,63.0,62.0,-100.00,NNW,332,1.0,2.0,98,0.00,,,0.02,0.000000,,2013-07-08 04:53:00,
2013-07-08 05:01:00,63.0,62.0,-100.00,NNW,332,1.0,2.0,98,0.00,,,0.02,0.000000,,2013-07-08 05:01:00,
2013-07-08 05:11:00,62.0,62.0,-100.00,SSE,148,1.0,2.0,99,0.00,,,0.02,0.000000,,2013-07-08 05:11:00,
2013-07-08 05:43:00,62.0,62.0,-100.00,SSE,148,1.0,2.0,99,0.00,,,0.02,0.000000,,2013-07-08 05:43:00,
2013-07-08 05:53:00,62.0,62.0,-100.00,SSE,148,1.0,2.0,99,0.00,,,0.02,0.000000,,2013-07-08 05:53:00,
2013-07-08 06:01:00,62.0,62.0,-100.00,SSE,148,1.0,2.0,99,0.00,,,0.02,0.000000,,2013-07-08 06:01:00,
2013-07-08 06:11:00,63.0,63.0,-100.00,SSE,165,1.0,4.0,99,0.00,,,0.02,0.000000,,2013-07-08 06:11:00,
2013-07-08 06:43:00,63.0,63.0,-100.00,SSE,165,1.0,4.0,99,0.00,,,0.02,0.000000,,2013-07-08 06:43:00,
2013-07-08 06:53:00,63.0,63.0,-100.00,SSE,165,1.0,4.0,99,0.00,,,0.02,0.000000,,2013-07-08 06:53:00,
2013-07-08 07:02:00,63.0,63.0,-100.00,SSE,165,1.0,4.0,99,0.00,,,0.02,0.000000,,2013-07-08 07:02:00,
2013-07-08 07:11:00,62.0,62.0,-100.00,WNW,296,1.0,2.0,99,0.00,,,0.02,0.000000,,2013-07-08 07:11:00,
2013-07-08 07:44:00,62.0,62.0,-100.00,WNW,296,1.0,2.0,99,0.00,,,0.02,0.000000,,2013-07-08 07:44:00,
2013-07-08 07:53:00,62.0,62.0,-100.00,WNW,296,1.0,2.0,99,0.00,,,0.02,0.000000,,2013-07-08 07:53:00,
2013-07-08 08:02:00,62.0,62.0,-100.00,WNW,296,1.0,2.0,99,0.00,,,0.02,0.000000,,2013-07-08 08:02:00,
2013-07-08 08:11:00,62.0,62.0,-100.00,SW,217,0.0,1.0,99,0.00,,,0.02,0.000000,,2013-07-08 08:11:00,
2013-07-08 08:42:00,62.0,62.0,-100.00,SW,217,0.0,1.0,99,0.00,,,0.02,0.000000,,2013-07-08 08:42:00,
2013-07-08 08:53:00,62.0,62.0,-100.00,SW,217,0.0,1.0,99,0.00,,,0.02,0.000000,,2013-07-08 08:53:00,
2013-07-08 09:02:00,62.0,62.0,-100.00,SW,217,0.0,1.0,99,0.00,,,0.02,0.000000,,2013-07-08 09:02:00,
2013-07-08 09:11:00,60.0,60.0,-100.00,SSE,165,0.0,1.0,99,0.00,,,0.02,0.000000,,2013-07-08 09:11:00,
2013-07-08 09:43:00,60.0,60.0,-100.00,SSE,165,0.0,1.0,99,0.00,,,0.02,0.000000,,2013-07-08 09:43:00,
2013-07-08 09:53:00,60.0,60.0,-100.00,SSE,165,0.0,1.0,99,0.00,,,0.02,0.000000,,2013-07-08 09:53:00,
2013-07-08 10:02:00,60.0,60.0,-100.00,SSE,165,0.0,1.0,99,0.00,,,0.02,0.000000,,2013-07-08 10:02:00,
2013-07-08 10:11:00,60.0,60.0,-100.00,South,172,1.0,2.0,99,0.00,,,0.02,0.000000,,2013-07-08 10:11:00,
2013-07-08 10:43:00,60.0,60.0,-100.00,South,172,1.0,2.0,99,0.00,,,0.02,0.000000,,2013-07-08 10:43:00,
2013-07-08 10:53:00,60.0,60.0,-100.00,South,172,1.0,2.0,99,0.00,,,0.02,0.000000,,2013-07-08 10:53:00,
2013-07-08 11:02:00,60.0,60.0,-100.00,South,172,1.0,2.0,99,0.00,,,0.02,0.000000,,2013-07-08 11:02:00,
2013-07-08 11:11:00,63.0,63.0,-100.00,SE,142,2.0,4.0,99,0.00,,,0.02,13.000000,,2013-07-08 11:11:00,
2013-07-08 11:33:00,63.0,63.0,-100.00,SE,142,2.0,4.0,99,0.00,,,0.02,13.000000,,2013-07-08 11:33:00,
2013-07-08 11:43:00,63.0,63.0,-100.00,SE,142,2.0,4.0,99,0.00,,,0.02,13.000000,,2013-07-08 11:43:00,
2013-07-08 11:53:00,63.0,63.0,-100.00,SE,142,2.0,4.0,99,0.00,,,0.02,13.000000,,2013-07-08 11:53:00,
2013-07-08 12:02:00,63.0,63.0,-100.00,SE,142,2.0,4.0,99,0.00,,,0.02,13.000000,,2013-07-08 12:02:00,
2013-07-08 12:11:00,64.0,64.0,-100.00,ENE,69,1.0,4.0,99,0.00,,,0.01,89.000000,,2013-07-08 12:11:00,
2013-07-08 12:43:00,64.0,64.0,-100.00,ENE,69,1.0,4.0,99,0.00,,,0.01,89.000000,,2013-07-08 12:43:00,
2013-07-08 12:53:00,64.0,64.0,-100.00,ENE,69,1.0,4.0,99,0.00,,,0.01,89.000000,,2013-07-08 12:53:00,
2013-07-08 13:02:00,64.0,64.0,-100.00,ENE,69,1.0,4.0,99,0.00,,,0.01,89.000000,,2013-07-08 13:02:00,
2013-07-08 13:11:00,65.0,65.0,-100.00,WSW,257,1.0,4.0,99,0.00,,,0.01,151.000000,,2013-07-08 13:11:00,
2013-07-08 13:43:00,65.0,65.0,-100.00,WSW,257,1.0,4.0,99,0.00,,,0.01,151.000000,,2013-07-08 13:43:00,
2013-07-08 13:53:00,65.0,65.0,-100.00,WSW,257,1.0,4.0,99,0.00,,,0.01,151.000000,,2013-07-08 13:53:00,
2013-07-08 14:02:00,65.0,65.0,-100.00,WSW,257,1.0,4.0,99,0.00,,,0.01,151.000000,,2013-07-08 14:02:00,
2013-07-08 14:11:00,71.0,70.0,-100.00,East,79,2.0,5.0,97,0.00,,,0.01,476.000000,,2013-07-08 14:11:00,
2013-07-08 14:43:00,71.0,70.0,-100.00,East,79,2.0,5.0,97,0.00,,,0.01,476.000000,,2013-07-08 14:43:00,
2013-07-08 14:53:00,71.0,70.0,-100.00,East,79,2.0,5.0,97,0.00,,,0.01,476.000000,,2013-07-08 14:53:00,
2013-07-08 15:02:00,71.0,70.0,-100.00,East,79,2.0,5.0,97,0.00,,,0.01,476.000000,,2013-07-08 15:02:00,
2013-07-08 15:11:00,74.0,67.0,-100.00,NE,38,3.0,6.0,78,0.00,,,0.01,601.000000,,2013-07-08 15:11:00,
2013-07-08 15:43:00,74.0,67.0,-100.00,NE,38,3.0,6.0,78,0.00,,,0.01,601.000000,,2013-07-08 15:43:00,
2013-07-08 15:53:00,74.0,67.0,-100.00,NE,38,3.0,6.0,78,0.00,,,0.01,601.000000,,2013-07-08 15:53:00,
2013-07-08 16:01:00,74.0,67.0,-100.00,NE,38,3.0,6.0,78,0.00,,,0.01,601.000000,,2013-07-08 16:01:00,
2013-07-08 16:11:00,79.0,69.0,-100.00,NNE,19,3.0,8.0,71,0.00,,,0.01,941.000000,,2013-07-08 16:11:00,
2013-07-08 16:43:00,79.0,69.0,-100.00,NNE,19,3.0,8.0,71,0.00,,,0.01,941.000000,,2013-07-08 16:43:00,
2013-07-08 16:58:00,79.0,69.0,-100.00,NNE,19,3.0,8.0,71,0.00,,,0.01,941.000000,,2013-07-08 16:58:00,
2013-07-08 17:07:00,79.0,69.0,-100.00,NNE,19,3.0,8.0,71,0.00,,,0.01,941.000000,,2013-07-08 17:07:00,
2013-07-08 17:11:00,81.0,66.0,-100.00,SW,226,2.0,8.0,60,0.01,,,0.02,962.000000,,2013-07-08 17:11:00,
2013-07-08 17:55:00,81.0,66.0,-100.00,SW,226,2.0,8.0,60,0.01,,,0.02,962.000000,,2013-07-08 17:55:00,
2013-07-08 18:11:00,82.0,63.0,-100.00,ENE,75,3.0,6.0,52,0.00,,,0.02,986.000000,,2013-07-08 18:11:00,
2013-07-08 18:56:00,82.0,63.0,-100.00,ENE,75,3.0,6.0,52,0.00,,,0.02,986.000000,,2013-07-08 18:56:00,
2013-07-08 19:11:00,80.0,62.0,-100.00,SE,127,2.0,7.0,55,0.00,,,0.02,674.000000,,2013-07-08 19:11:00,
2013-07-08 19:58:00,80.0,62.0,-100.00,SE,127,2.0,7.0,55,0.00,,,0.02,674.000000,,2013-07-08 19:58:00,
2013-07-08 20:07:00,80.0,62.0,-100.00,SE,127,2.0,7.0,55,0.00,,,0.02,674.000000,,2013-07-08 20:07:00,
2013-07-08 20:11:00,79.0,59.0,-100.00,SE,126,2.0,4.0,50,0.00,,,0.02,611.000000,,2013-07-08 20:11:00,
2013-07-08 20:57:00,79.0,59.0,-100.00,SE,126,2.0,4.0,50,0.00,,,0.02,611.000000,,2013-07-08 20:57:00,
2013-07-08 21:11:00,78.0,66.0,-100.00,WSW,253,3.0,6.0,67,0.00,,,0.02,497.000000,,2013-07-08 21:11:00,
2013-07-08 21:58:00,78.0,66.0,-100.00,WSW,253,3.0,6.0,67,0.00,,,0.02,497.000000,,2013-07-08 21:58:00,
2013-07-08 22:10:00,78.0,66.0,-100.00,WSW,253,3.0,6.0,67,0.00,,,0.02,497.000000,,2013-07-08 22:10:00,
2013-07-08 22:11:00,77.0,68.0,-100.00,NW,312,1.0,6.0,75,0.00,,,0.02,250.000000,,2013-07-08 22:11:00,
2013-07-08 22:49:00,77.0,68.0,-100.00,NW,312,1.0,6.0,75,0.00,,,0.02,250.000000,,2013-07-08 22:49:00,
2013-07-08 23:00:00,77.0,68.0,-100.00,NW,312,1.0,6.0,75,0.00,,,0.02,250.000000,,2013-07-08 23:00:00,
2013-07-08 23:10:00,77.0,68.0,-100.00,NW,312,1.0,6.0,75,0.00,,,0.02,250.000000,,2013-07-08 23:10:00,